• In France
  • List of Countries
  • For 7 days
  • Water Temperature
  • Satellite Maps
  • Weather Map
  • Weather Widgets
  • user-avatar
    Login

    Hourly Weather Rawson

    Today, 15 November, Thursday

    Time Temperature Precipitation Wind Pressure Humidity
    00:00 +15°C° 0 mm 14 mps 749 mmHg 27%
    01:00 +13°C° 0 mm 14 mps 750 mmHg 29%
    02:00 +10°C° 0 mm 13 mps 751 mmHg 30%
    03:00 +10°C° 0 mm 13 mps 751 mmHg 31%
    04:00 +9°C° 0 mm 13 mps 752 mmHg 31%
    05:00 +9°C° 0 mm 12 mps 753 mmHg 31%
    06:00 +9°C° 0 mm 12 mps 754 mmHg 30%
    07:00 +10°C° 0 mm 12 mps 754 mmHg 29%
    08:00 +10°C° 0 mm 12 mps 755 mmHg 27%
    09:00 +12°C° 0 mm 11 mps 756 mmHg 26%
    10:00 +13°C° 0 mm 10 mps 756 mmHg 24%
    11:00 +15°C° 0 mm 9 mps 757 mmHg 23%
    12:00 +16°C° 0 mm 8 mps 757 mmHg 22%
    13:00 +17°C° 0 mm 8 mps 758 mmHg 20%
    14:00 +17°C° 0 mm 7 mps 758 mmHg 18%
    15:00 +17°C° 0 mm 6 mps 758 mmHg 20%
    16:00 +16°C° 0 mm 6 mps 758 mmHg 22%
    17:00 +16°C° 0 mm 5 mps 758 mmHg 24%
    18:00 +15°C° 0 mm 5 mps 758 mmHg 30%
    19:00 +13°C° 0 mm 6 mps 758 mmHg 36%
    20:00 +11°C° 0 mm 6 mps 758 mmHg 42%
    21:00 +11°C° 0 mm 6 mps 759 mmHg 42%
    22:00 +11°C° 0 mm 7 mps 759 mmHg 43%
    23:00 +11°C° 0 mm 8 mps 759 mmHg 44%

    Tomorrow, 16 November, Friday

    Time Temperature Precipitation Wind Pressure Humidity
    00:00 +11°C° 0 mm 8 mps 759 mmHg 44%
    01:00 +12°C° 0 mm 8 mps 759 mmHg 44%
    02:00 +12°C° 0 mm 8 mps 759 mmHg 45%
    03:00 +11°C° 0 mm 7 mps 759 mmHg 43%
    04:00 +11°C° 0 mm 6 mps 759 mmHg 41%
    05:00 +12°C° 0 mm 5 mps 759 mmHg 40%
    06:00 +13°C° 0 mm 4 mps 758 mmHg 35%
    07:00 +14°C° 0 mm 3 mps 758 mmHg 31%
    08:00 +16°C° 0 mm 3 mps 758 mmHg 26%
    09:00 +18°C° 0 mm 3 mps 758 mmHg 25%
    10:00 +19°C° 0 mm 3 mps 757 mmHg 23%
    11:00 +20°C° 0 mm 3 mps 757 mmHg 21%
    12:00 +21°C° 0 mm 3 mps 756 mmHg 19%
    13:00 +23°C° 0 mm 4 mps 755 mmHg 17%
    14:00 +25°C° 0 mm 4 mps 754 mmHg 15%
    15:00 +23°C° 0 mm 5 mps 754 mmHg 16%
    16:00 +23°C° 0 mm 5 mps 753 mmHg 18%
    17:00 +23°C° 0 mm 5 mps 753 mmHg 19%
    18:00 +22°C° 0 mm 5 mps 753 mmHg 23%
    19:00 +21°C° 0 mm 4 mps 753 mmHg 26%
    20:00 +20°C° 0 mm 4 mps 753 mmHg 30%
    21:00 +19°C° 0 mm 4 mps 753 mmHg 32%
    22:00 +19°C° 0 mm 4 mps 753 mmHg 35%
    23:00 +18°C° 0 mm 4 mps 753 mmHg 37%

    Day after tomorrow, 17 November, Saturday

    Time Temperature Precipitation Wind Pressure Humidity
    00:00 +18°C° 0 mm 4 mps 753 mmHg 39%
    01:00 +18°C° 0 mm 3 mps 753 mmHg 41%
    02:00 +18°C° 0 mm 3 mps 753 mmHg 43%
    03:00 +17°C° 0 mm 5 mps 753 mmHg 40%
    04:00 +16°C° 0 mm 7 mps 753 mmHg 36%
    05:00 +16°C° 0 mm 10 mps 753 mmHg 33%
    06:00 +16°C° 0 mm 10 mps 754 mmHg 32%
    07:00 +16°C° 0 mm 10 mps 754 mmHg 32%
    08:00 +16°C° 0 mm 10 mps 755 mmHg 31%
    09:00 +17°C° 0 mm 9 mps 755 mmHg 30%
    10:00 +17°C° 0 mm 9 mps 755 mmHg 28%
    11:00 +18°C° 0 mm 8 mps 756 mmHg 27%
    12:00 +18°C° 0 mm 8 mps 755 mmHg 28%
    13:00 +18°C° 0 mm 8 mps 755 mmHg 29%
    14:00 +20°C° 0 mm 7 mps 755 mmHg 29%
    15:00 +20°C° 0 mm 6 mps 755 mmHg 29%
    16:00 +20°C° 0 mm 5 mps 755 mmHg 29%
    17:00 +20°C° 0 mm 3 mps 755 mmHg 29%
    18:00 +20°C° 0 mm 3 mps 755 mmHg 30%
    19:00 +19°C° 0 mm 3 mps 756 mmHg 31%
    20:00 +19°C° 0 mm 3 mps 756 mmHg 32%
    21:00 +19°C° 0 mm 4 mps 756 mmHg 32%
    22:00 +19°C° 0 mm 6 mps 756 mmHg 33%
    23:00 +17°C° 0 mm 7 mps 757 mmHg 33%

    18 November, Sunday

    Time Temperature Precipitation Wind Pressure Humidity
    00:00 +17°C° 0 mm 7 mps 757 mmHg 34%
    01:00 +16°C° 0 mm 8 mps 756 mmHg 36%
    02:00 +15°C° 0 mm 8 mps 756 mmHg 37%
    03:00 +13°C° 0 mm 8 mps 756 mmHg 39%
    04:00 +14°C° 0 mm 7 mps 757 mmHg 40%
    05:00 +12°C° 0 mm 7 mps 757 mmHg 42%
    06:00 +15°C° 0 mm 7 mps 757 mmHg 39%
    07:00 +16°C° 0 mm 8 mps 757 mmHg 35%
    08:00 +17°C° 0 mm 9 mps 757 mmHg 32%
    09:00 +18°C° 0 mm 9 mps 757 mmHg 30%
    10:00 +21°C° 0 mm 8 mps 757 mmHg 28%
    11:00 +22°C° 0 mm 8 mps 756 mmHg 26%
    12:00 +23°C° 0 mm 8 mps 756 mmHg 25%
    13:00 +24°C° 0 mm 7 mps 755 mmHg 23%
    14:00 +26°C° 0 mm 7 mps 755 mmHg 22%
    15:00 +26°C° 0 mm 7 mps 755 mmHg 22%
    16:00 +26°C° 0 mm 6 mps 754 mmHg 22%
    17:00 +26°C° 0 mm 6 mps 754 mmHg 22%
    18:00 +26°C° 0 mm 5 mps 754 mmHg 23%
    19:00 +25°C° 0 mm 5 mps 754 mmHg 25%
    20:00 +25°C° 0 mm 4 mps 754 mmHg 26%
    21:00 +23°C° 0 mm 4 mps 754 mmHg 27%
    22:00 +23°C° 0 mm 4 mps 754 mmHg 28%
    23:00 +22°C° 0 mm 4 mps 754 mmHg 29%

    19 November, Monday

    Time Temperature Precipitation Wind Pressure Humidity
    00:00 +21°C° 0 mm 4 mps 754 mmHg 31%
    01:00 +21°C° 0 mm 4 mps 754 mmHg 32%
    02:00 +20°C° 0 mm 3 mps 754 mmHg 33%
    03:00 +20°C° 0 mm 4 mps 753 mmHg 34%
    04:00 +19°C° 0 mm 4 mps 753 mmHg 35%
    05:00 +19°C° 0 mm 5 mps 753 mmHg 36%
    06:00 +20°C° 0 mm 5 mps 753 mmHg 37%
    07:00 +20°C° 0 mm 5 mps 752 mmHg 37%
    08:00 +21°C° 0 mm 5 mps 752 mmHg 37%
    09:00 +22°C° 0 mm 5 mps 752 mmHg 34%
    10:00 +25°C° 0 mm 5 mps 751 mmHg 31%
    11:00 +27°C° 0 mm 6 mps 751 mmHg 28%
    12:00 +27°C° 0 mm 6 mps 750 mmHg 26%
    13:00 +28°C° 0 mm 6 mps 750 mmHg 24%
    14:00 +29°C° 0 mm 6 mps 749 mmHg 22%
    15:00 +30°C° 0 mm 6 mps 749 mmHg 21%
    16:00 +30°C° 0 mm 7 mps 749 mmHg 21%
    17:00 +30°C° 0 mm 7 mps 748 mmHg 20%
    18:00 +29°C° 0 mm 7 mps 748 mmHg 21%
    19:00 +28°C° 0 mm 6 mps 749 mmHg 22%
    20:00 +27°C° 0 mm 6 mps 749 mmHg 23%
    21:00 +26°C° 0 mm 6 mps 750 mmHg 24%
    22:00 +24°C° 0 mm 7 mps 750 mmHg 24%
    23:00 +24°C° 0 mm 7 mps 751 mmHg 25%

    20 November, Tuesday

    Time Temperature Precipitation Wind Pressure Humidity
    00:00 +23°C° 0 mm 7 mps 751 mmHg 28%
    01:00 +22°C° 0 mm 7 mps 752 mmHg 31%
    02:00 +21°C° 0 mm 7 mps 752 mmHg 34%
    03:00 +20°C° 0 mm 6 mps 753 mmHg 36%
    04:00 +20°C° 0 mm 5 mps 753 mmHg 37%
    05:00 +19°C° 0 mm 5 mps 753 mmHg 39%
    06:00 +20°C° 0 mm 5 mps 754 mmHg 37%
    07:00 +21°C° 0 mm 6 mps 754 mmHg 35%
    08:00 +22°C° 0 mm 6 mps 755 mmHg 33%
    09:00 +23°C° 0 mm 5 mps 755 mmHg 30%
    10:00 +25°C° 0 mm 4 mps 755 mmHg 28%
    11:00 +26°C° 0 mm 3 mps 755 mmHg 25%
    12:00 +27°C° 0 mm 4 mps 754 mmHg 24%
    13:00 +28°C° 0 mm 5 mps 753 mmHg 23%
    14:00 +29°C° 0 mm 6 mps 753 mmHg 21%
    15:00 +29°C° 0 mm 7 mps 751 mmHg 21%
    16:00 +31°C° 0 mm 8 mps 750 mmHg 21%
    17:00 +31°C° 0 mm 8 mps 749 mmHg 21%
    18:00 +29°C° 0 mm 9 mps 748 mmHg 23%
    19:00 +29°C° 0 mm 10 mps 748 mmHg 25%
    20:00 +28°C° 0 mm 11 mps 747 mmHg 27%
    21:00 +28°C° 0 mm 11 mps 747 mmHg 27%
    22:00 +28°C° 0 mm 10 mps 747 mmHg 27%
    23:00 +28°C° 0 mm 10 mps 747 mmHg 28%
    Show more